• In Hungary
  • List of Countries
  • For 7 days
  • Water Temperature
  • Satellite Maps
  • Weather Map
  • News
  • Weather Widgets
  • user-avatar
    Login

    Hourly Weather Oko

    Today, 17 October, Tuesday

    Time Temperature Precipitation Wind Pressure Humidity
    00:00 +12°C° 0 mm 3 mps 754 mmHg 95%
    01:00 +13°C° 0 mm 2 mps 754 mmHg 96%
    02:00 +12°C° 0 mm 2 mps 754 mmHg 96%
    03:00 +12°C° 0 mm 2 mps 754 mmHg 97%
    04:00 +12°C° 0 mm 2 mps 754 mmHg 97%
    05:00 +12°C° 0.1 mm 2 mps 754 mmHg 97%
    06:00 +12°C° 0.1 mm 2 mps 755 mmHg 97%
    07:00 +12°C° 0.1 mm 2 mps 755 mmHg 97%
    08:00 +14°C° 0 mm 2 mps 755 mmHg 91%
    09:00 +14°C° 0 mm 3 mps 755 mmHg 86%
    10:00 +17°C° 0 mm 3 mps 755 mmHg 80%
    11:00 +18°C° 0 mm 3 mps 754 mmHg 76%
    12:00 +19°C° 0 mm 4 mps 754 mmHg 72%
    13:00 +20°C° 0 mm 4 mps 754 mmHg 68%
    14:00 +19°C° 0 mm 4 mps 753 mmHg 71%
    15:00 +19°C° 0 mm 4 mps 753 mmHg 74%
    16:00 +18°C° 0 mm 4 mps 752 mmHg 77%
    17:00 +17°C° 0 mm 4 mps 752 mmHg 79%
    18:00 +15°C° 0 mm 4 mps 752 mmHg 81%
    19:00 +15°C° 0 mm 4 mps 752 mmHg 83%
    20:00 +14°C° 0 mm 3 mps 752 mmHg 84%
    21:00 +14°C° 0 mm 3 mps 752 mmHg 86%
    22:00 +13°C° 0 mm 3 mps 752 mmHg 87%
    23:00 +13°C° 0 mm 3 mps 751 mmHg 89%

    Tomorrow, 18 October, Wednesday

    Time Temperature Precipitation Wind Pressure Humidity
    00:00 +13°C° 0 mm 3 mps 751 mmHg 90%
    01:00 +12°C° 0 mm 3 mps 751 mmHg 91%
    02:00 +12°C° 0 mm 3 mps 751 mmHg 92%
    03:00 +12°C° 0 mm 3 mps 750 mmHg 93%
    04:00 +12°C° 0 mm 3 mps 750 mmHg 93%
    05:00 +12°C° 0 mm 3 mps 750 mmHg 94%
    06:00 +12°C° 0 mm 3 mps 750 mmHg 94%
    07:00 +12°C° 0 mm 3 mps 750 mmHg 94%
    08:00 +13°C° 0 mm 3 mps 750 mmHg 87%
    09:00 +15°C° 0 mm 4 mps 750 mmHg 79%
    10:00 +17°C° 0 mm 4 mps 750 mmHg 71%
    11:00 +18°C° 0 mm 4 mps 750 mmHg 67%
    12:00 +18°C° 0 mm 4 mps 750 mmHg 64%
    13:00 +19°C° 0 mm 4 mps 750 mmHg 60%
    14:00 +18°C° 0 mm 3 mps 750 mmHg 64%
    15:00 +17°C° 0 mm 2 mps 750 mmHg 68%
    16:00 +16°C° 0 mm 2 mps 749 mmHg 73%
    17:00 +15°C° 0 mm 1 mps 750 mmHg 76%
    18:00 +14°C° 0 mm 1 mps 750 mmHg 80%
    19:00 +13°C° 0 mm 1 mps 750 mmHg 84%
    20:00 +13°C° 0 mm 1 mps 750 mmHg 85%
    21:00 +11°C° 0 mm 0 mps 750 mmHg 87%
    22:00 +11°C° 0 mm 0 mps 750 mmHg 88%
    23:00 +11°C° 0 mm 0 mps 750 mmHg 89%

    Day after tomorrow, 19 October, Thursday

    Time Temperature Precipitation Wind Pressure Humidity
    00:00 +10°C° 0 mm 0 mps 749 mmHg 89%
    01:00 +11°C° 0 mm 1 mps 749 mmHg 90%
    02:00 +11°C° 0 mm 1 mps 749 mmHg 90%
    03:00 +11°C° 0 mm 1 mps 749 mmHg 91%
    04:00 +10°C° 0 mm 1 mps 749 mmHg 91%
    05:00 +10°C° 0 mm 1 mps 749 mmHg 91%
    06:00 +10°C° 0 mm 1 mps 749 mmHg 92%
    07:00 +10°C° 0 mm 1 mps 749 mmHg 92%
    08:00 +12°C° 0 mm 1 mps 749 mmHg 86%
    09:00 +13°C° 0 mm 1 mps 749 mmHg 79%
    10:00 +15°C° 0 mm 1 mps 750 mmHg 73%
    11:00 +16°C° 0 mm 1 mps 750 mmHg 70%
    12:00 +18°C° 0 mm 1 mps 750 mmHg 67%
    13:00 +18°C° 0 mm 1 mps 750 mmHg 64%
    14:00 +18°C° 0 mm 1 mps 749 mmHg 68%
    15:00 +16°C° 0 mm 1 mps 749 mmHg 72%
    16:00 +15°C° 0 mm 2 mps 749 mmHg 76%
    17:00 +14°C° 0 mm 2 mps 750 mmHg 80%
    18:00 +13°C° 0 mm 2 mps 750 mmHg 84%
    19:00 +12°C° 0 mm 2 mps 750 mmHg 89%
    20:00 +12°C° 0 mm 2 mps 750 mmHg 89%
    21:00 +10°C° 0 mm 2 mps 751 mmHg 90%
    22:00 +10°C° 0 mm 2 mps 751 mmHg 91%
    23:00 +10°C° 0 mm 2 mps 751 mmHg 92%

    20 October, Friday

    Time Temperature Precipitation Wind Pressure Humidity
    00:00 +10°C° 0 mm 2 mps 751 mmHg 93%
    01:00 +9°C° 0 mm 2 mps 751 mmHg 94%
    02:00 +9°C° 0 mm 2 mps 751 mmHg 94%
    03:00 +9°C° 0 mm 2 mps 751 mmHg 95%
    04:00 +9°C° 0 mm 2 mps 751 mmHg 95%
    05:00 +9°C° 0 mm 2 mps 751 mmHg 95%
    06:00 +9°C° 0 mm 2 mps 751 mmHg 95%
    07:00 +9°C° 0 mm 2 mps 751 mmHg 96%
    08:00 +12°C° 0 mm 2 mps 751 mmHg 91%
    09:00 +13°C° 0 mm 2 mps 752 mmHg 85%
    10:00 +15°C° 0 mm 2 mps 752 mmHg 80%
    11:00 +14°C° 0 mm 3 mps 751 mmHg 78%
    12:00 +16°C° 0 mm 3 mps 751 mmHg 76%
    13:00 +17°C° 0 mm 3 mps 751 mmHg 74%
    14:00 +17°C° 0 mm 2 mps 751 mmHg 77%
    15:00 +16°C° 0 mm 2 mps 750 mmHg 80%
    16:00 +15°C° 0 mm 2 mps 750 mmHg 83%
    17:00 +15°C° 0 mm 2 mps 750 mmHg 85%
    18:00 +15°C° 0 mm 2 mps 750 mmHg 86%
    19:00 +13°C° 0 mm 3 mps 750 mmHg 87%
    20:00 +13°C° 0.1 mm 3 mps 750 mmHg 87%
    21:00 +13°C° 0.1 mm 3 mps 750 mmHg 86%
    22:00 +13°C° 0.1 mm 3 mps 750 mmHg 86%
    23:00 +13°C° 0.2 mm 3 mps 749 mmHg 86%

    21 October, Saturday

    Time Temperature Precipitation Wind Pressure Humidity
    00:00 +13°C° 0.2 mm 4 mps 749 mmHg 85%
    01:00 +13°C° 0.2 mm 4 mps 748 mmHg 85%
    02:00 +13°C° 0.2 mm 4 mps 748 mmHg 84%
    03:00 +13°C° 0.2 mm 4 mps 748 mmHg 83%
    04:00 +13°C° 0.2 mm 4 mps 747 mmHg 82%
    05:00 +12°C° 0.2 mm 4 mps 747 mmHg 84%
    06:00 +12°C° 0.2 mm 4 mps 747 mmHg 86%
    07:00 +12°C° 0.2 mm 4 mps 747 mmHg 88%
    08:00 +12°C° 0.1 mm 4 mps 747 mmHg 83%
    09:00 +13°C° 0.1 mm 5 mps 747 mmHg 79%
    10:00 +14°C° 0.1 mm 5 mps 747 mmHg 74%
    11:00 +13°C° 0 mm 5 mps 747 mmHg 73%
    12:00 +13°C° 0 mm 5 mps 747 mmHg 72%
    13:00 +13°C° 0 mm 5 mps 747 mmHg 70%
    14:00 +13°C° 0 mm 4 mps 747 mmHg 73%
    15:00 +12°C° 0 mm 3 mps 747 mmHg 75%
    16:00 +12°C° 0 mm 3 mps 747 mmHg 78%
    17:00 +12°C° 0 mm 2 mps 747 mmHg 80%
    18:00 +12°C° 0 mm 2 mps 748 mmHg 82%
    19:00 +12°C° 0 mm 2 mps 748 mmHg 85%
    20:00 +10°C° 0 mm 2 mps 748 mmHg 86%
    21:00 +10°C° 0 mm 2 mps 748 mmHg 87%
    22:00 +10°C° 0 mm 2 mps 748 mmHg 89%
    23:00 +9°C° 0 mm 2 mps 747 mmHg 90%

    22 October, Sunday

    Time Temperature Precipitation Wind Pressure Humidity
    00:00 +9°C° 0 mm 2 mps 747 mmHg 91%
    01:00 +9°C° 0 mm 2 mps 747 mmHg 92%
    02:00 +10°C° 0 mm 1 mps 747 mmHg 91%
    03:00 +10°C° 0 mm 1 mps 747 mmHg 90%
    04:00 +10°C° 0 mm 1 mps 747 mmHg 90%
    05:00 +10°C° 0 mm 1 mps 747 mmHg 89%
    06:00 +10°C° 0 mm 1 mps 747 mmHg 89%
    07:00 +10°C° 0 mm 1 mps 747 mmHg 89%
    08:00 +11°C° 0.1 mm 1 mps 747 mmHg 86%
    09:00 +10°C° 0.1 mm 2 mps 747 mmHg 84%
    10:00 +12°C° 0.1 mm 2 mps 747 mmHg 82%
    11:00 +12°C° 0.3 mm 2 mps 747 mmHg 83%
    12:00 +12°C° 0.3 mm 2 mps 746 mmHg 84%
    13:00 +12°C° 0.3 mm 2 mps 746 mmHg 85%
    14:00 +10°C° 0.9 mm 2 mps 746 mmHg 88%
    15:00 +10°C° 0.9 mm 2 mps 745 mmHg 90%
    16:00 +10°C° 0.9 mm 2 mps 745 mmHg 92%
    17:00 +10°C° 1.4 mm 2 mps 745 mmHg 93%
    18:00 +11°C° 1.4 mm 1 mps 745 mmHg 94%
    19:00 +10°C° 1.4 mm 1 mps 745 mmHg 95%
    20:00 +10°C° 0.6 mm 2 mps 745 mmHg 95%
    21:00 +10°C° 0.6 mm 2 mps 745 mmHg 95%
    22:00 +10°C° 0.6 mm 2 mps 744 mmHg 95%
    23:00 +10°C° 0.4 mm 3 mps 744 mmHg 94%
    Show more